When you browse on this site, cookies collect data to enhance your experience and personalize the content and advertising you see.
Visit our Privacy Policy to learn more. By continuing to use the site, you agree to this use of cookies and data.
  • In Norway
  • List of Countries
  • For 7 days
  • Water Temperature
  • Satellite Maps
  • Weather Map
  • Weather Widgets
  • user-avatar
    Login

    Hourly Weather Salzburg

    Today, 11 December, Tuesday

    Time Temperature Precipitation Wind Pressure Humidity
    00:00 -8°C° 1.1 mm 3 mps 622 mmHg 95%
    01:00 -9°C° 1.1 mm 3 mps 623 mmHg 95%
    02:00 -9°C° 0.6 mm 3 mps 623 mmHg 94%
    03:00 -9°C° 0.6 mm 3 mps 622 mmHg 94%
    04:00 -9°C° 0.6 mm 3 mps 622 mmHg 94%
    05:00 -9°C° 0.6 mm 3 mps 622 mmHg 94%
    06:00 -10°C° 0.6 mm 3 mps 623 mmHg 94%
    07:00 -10°C° 0.6 mm 3 mps 623 mmHg 94%
    08:00 -10°C° 0.4 mm 3 mps 623 mmHg 93%
    09:00 -9°C° 0.4 mm 3 mps 623 mmHg 92%
    10:00 -9°C° 0.4 mm 3 mps 623 mmHg 91%
    11:00 -9°C° 0.5 mm 3 mps 623 mmHg 90%
    12:00 -9°C° 0.5 mm 3 mps 623 mmHg 89%
    13:00 -8°C° 0.5 mm 3 mps 623 mmHg 89%
    14:00 -9°C° 0.4 mm 3 mps 623 mmHg 90%
    15:00 -9°C° 0.4 mm 3 mps 623 mmHg 91%
    16:00 -9°C° 0.4 mm 3 mps 623 mmHg 92%
    17:00 -9°C° 0.3 mm 3 mps 623 mmHg 92%
    18:00 -9°C° 0.3 mm 2 mps 624 mmHg 93%
    19:00 -9°C° 0.3 mm 2 mps 624 mmHg 93%
    20:00 -9°C° 0.2 mm 2 mps 624 mmHg 93%
    21:00 -10°C° 0.2 mm 2 mps 624 mmHg 93%
    22:00 -10°C° 0.2 mm 2 mps 624 mmHg 93%
    23:00 -10°C° 0.1 mm 2 mps 623 mmHg 92%

    Tomorrow, 12 December, Wednesday

    Time Temperature Precipitation Wind Pressure Humidity
    00:00 -12°C° 0.1 mm 2 mps 623 mmHg 92%
    01:00 -12°C° 0.1 mm 2 mps 623 mmHg 92%
    02:00 -12°C° 0.2 mm 2 mps 623 mmHg 91%
    03:00 -13°C° 0.2 mm 2 mps 623 mmHg 91%
    04:00 -13°C° 0.2 mm 2 mps 623 mmHg 91%
    05:00 -13°C° 0.2 mm 2 mps 623 mmHg 91%
    06:00 -13°C° 0.2 mm 2 mps 623 mmHg 90%
    07:00 -13°C° 0.2 mm 2 mps 623 mmHg 90%
    08:00 -12°C° 0.2 mm 2 mps 623 mmHg 90%
    09:00 -12°C° 0.2 mm 2 mps 624 mmHg 90%
    10:00 -10°C° 0.2 mm 2 mps 624 mmHg 90%
    11:00 -9°C° 0.2 mm 2 mps 624 mmHg 89%
    12:00 -7°C° 0.2 mm 1 mps 624 mmHg 89%
    13:00 -6°C° 0.2 mm 1 mps 624 mmHg 88%
    14:00 -7°C° 0.1 mm 1 mps 623 mmHg 90%
    15:00 -8°C° 0.1 mm 1 mps 623 mmHg 93%
    16:00 -9°C° 0.1 mm 1 mps 622 mmHg 95%
    17:00 -10°C° 0 mm 1 mps 622 mmHg 95%
    18:00 -11°C° 0 mm 1 mps 622 mmHg 94%
    19:00 -12°C° 0 mm 1 mps 622 mmHg 94%
    20:00 -12°C° 0 mm 1 mps 622 mmHg 93%
    21:00 -13°C° 0 mm 1 mps 621 mmHg 92%
    22:00 -13°C° 0 mm 1 mps 621 mmHg 92%
    23:00 -13°C° 0 mm 1 mps 621 mmHg 91%

    Day after tomorrow, 13 December, Thursday

    Time Temperature Precipitation Wind Pressure Humidity
    00:00 -14°C° 0 mm 1 mps 621 mmHg 90%
    01:00 -14°C° 0 mm 1 mps 620 mmHg 89%
    02:00 -14°C° 0 mm 1 mps 620 mmHg 89%
    03:00 -14°C° 0 mm 1 mps 620 mmHg 89%
    04:00 -14°C° 0 mm 1 mps 620 mmHg 89%
    05:00 -15°C° 0 mm 1 mps 619 mmHg 89%
    06:00 -15°C° 0 mm 1 mps 619 mmHg 89%
    07:00 -15°C° 0 mm 1 mps 619 mmHg 89%
    08:00 -14°C° 0 mm 1 mps 620 mmHg 89%
    09:00 -12°C° 0 mm 1 mps 620 mmHg 88%
    10:00 -11°C° 0 mm 1 mps 620 mmHg 88%
    11:00 -10°C° 0 mm 1 mps 621 mmHg 86%
    12:00 -8°C° 0 mm 1 mps 621 mmHg 85%
    13:00 -7°C° 0 mm 1 mps 621 mmHg 83%
    14:00 -8°C° 0 mm 1 mps 620 mmHg 86%
    15:00 -9°C° 0 mm 1 mps 620 mmHg 89%
    16:00 -10°C° 0 mm 1 mps 619 mmHg 92%
    17:00 -11°C° 0 mm 1 mps 619 mmHg 92%
    18:00 -12°C° 0 mm 1 mps 619 mmHg 91%
    19:00 -13°C° 0 mm 1 mps 619 mmHg 91%
    20:00 -14°C° 0 mm 1 mps 619 mmHg 90%
    21:00 -14°C° 0 mm 1 mps 620 mmHg 89%
    22:00 -14°C° 0 mm 1 mps 620 mmHg 88%
    23:00 -14°C° 0 mm 1 mps 620 mmHg 88%

    14 December, Friday

    Time Temperature Precipitation Wind Pressure Humidity
    00:00 -14°C° 0 mm 1 mps 620 mmHg 87%
    01:00 -14°C° 0 mm 1 mps 620 mmHg 86%
    02:00 -15°C° 0 mm 1 mps 619 mmHg 86%
    03:00 -15°C° 0 mm 1 mps 619 mmHg 85%
    04:00 -15°C° 0 mm 1 mps 619 mmHg 84%
    05:00 -15°C° 0 mm 1 mps 620 mmHg 84%
    06:00 -15°C° 0 mm 1 mps 620 mmHg 84%
    07:00 -15°C° 0 mm 1 mps 620 mmHg 83%
    08:00 -13°C° 0 mm 1 mps 621 mmHg 83%
    09:00 -12°C° 0 mm 1 mps 621 mmHg 83%
    10:00 -10°C° 0 mm 1 mps 622 mmHg 83%
    11:00 -9°C° 0 mm 1 mps 622 mmHg 81%
    12:00 -7°C° 0 mm 1 mps 623 mmHg 79%
    13:00 -6°C° 0 mm 1 mps 623 mmHg 78%
    14:00 -8°C° 0 mm 1 mps 622 mmHg 82%
    15:00 -9°C° 0 mm 0 mps 622 mmHg 86%
    16:00 -11°C° 0 mm 0 mps 622 mmHg 90%
    17:00 -11°C° 0 mm 1 mps 622 mmHg 88%
    18:00 -12°C° 0 mm 1 mps 622 mmHg 87%
    19:00 -13°C° 0 mm 1 mps 622 mmHg 85%
    20:00 -13°C° 0 mm 1 mps 623 mmHg 82%
    21:00 -13°C° 0 mm 1 mps 623 mmHg 79%
    22:00 -13°C° 0 mm 1 mps 623 mmHg 76%
    23:00 -13°C° 0 mm 1 mps 623 mmHg 73%

    15 December, Saturday

    Time Temperature Precipitation Wind Pressure Humidity
    00:00 -13°C° 0 mm 1 mps 623 mmHg 71%
    01:00 -13°C° 0 mm 1 mps 623 mmHg 69%
    02:00 -13°C° 0 mm 1 mps 623 mmHg 68%
    03:00 -13°C° 0 mm 1 mps 624 mmHg 67%
    04:00 -16°C° 0 mm 2 mps 624 mmHg 66%
    05:00 -16°C° 0 mm 2 mps 624 mmHg 66%
    06:00 -16°C° 0 mm 2 mps 624 mmHg 66%
    07:00 -16°C° 0 mm 2 mps 624 mmHg 66%
    08:00 -12°C° 0 mm 1 mps 625 mmHg 68%
    09:00 -11°C° 0 mm 1 mps 626 mmHg 71%
    10:00 -9°C° 0 mm 1 mps 627 mmHg 73%
    11:00 -8°C° 0 mm 1 mps 627 mmHg 73%
    12:00 -7°C° 0 mm 1 mps 627 mmHg 73%
    13:00 -4°C° 0 mm 1 mps 627 mmHg 73%
    14:00 -7°C° 0 mm 1 mps 627 mmHg 78%
    15:00 -8°C° 0 mm 1 mps 626 mmHg 82%
    16:00 -10°C° 0 mm 0 mps 626 mmHg 87%
    17:00 -11°C° 0 mm 1 mps 626 mmHg 85%
    18:00 -11°C° 0 mm 1 mps 626 mmHg 82%
    19:00 -12°C° 0 mm 1 mps 626 mmHg 80%
    20:00 -12°C° 0 mm 1 mps 626 mmHg 77%
    21:00 -14°C° 0 mm 2 mps 626 mmHg 75%
    22:00 -14°C° 0 mm 2 mps 626 mmHg 73%
    23:00 -13°C° 0 mm 2 mps 626 mmHg 71%

    16 December, Sunday

    Time Temperature Precipitation Wind Pressure Humidity
    00:00 -13°C° 0 mm 2 mps 626 mmHg 69%
    01:00 -13°C° 0 mm 2 mps 626 mmHg 67%
    02:00 -13°C° 0 mm 2 mps 626 mmHg 67%
    03:00 -12°C° 0 mm 2 mps 626 mmHg 66%
    04:00 -10°C° 0 mm 1 mps 626 mmHg 65%
    05:00 -9°C° 0 mm 1 mps 626 mmHg 67%
    06:00 -8°C° 0 mm 1 mps 626 mmHg 68%
    07:00 -7°C° 0 mm 1 mps 626 mmHg 69%
    08:00 -6°C° 0.2 mm 1 mps 627 mmHg 73%
    09:00 -4°C° 0.2 mm 1 mps 627 mmHg 77%
    10:00 -3°C° 0.2 mm 1 mps 627 mmHg 81%
    11:00 -2°C° 0.7 mm 1 mps 627 mmHg 85%
    12:00 -2°C° 0.7 mm 1 mps 627 mmHg 88%
    13:00 -1°C° 0.7 mm 1 mps 627 mmHg 92%
    14:00 -1°C° 0.6 mm 1 mps 626 mmHg 92%
    15:00 -1°C° 0.6 mm 1 mps 626 mmHg 93%
    16:00 -1°C° 0.6 mm 1 mps 626 mmHg 94%
    17:00 -1°C° 0.4 mm 1 mps 626 mmHg 93%
    18:00 -1°C° 0.4 mm 1 mps 626 mmHg 93%
    19:00 -1°C° 0.4 mm 1 mps 626 mmHg 92%
    20:00 -1°C° 0.3 mm 1 mps 626 mmHg 92%
    21:00 -1°C° 0.3 mm 1 mps 626 mmHg 92%
    22:00 -1°C° 0.3 mm 1 mps 626 mmHg 92%
    23:00 -1°C° 0.9 mm 1 mps 626 mmHg 94%
    Show more